| time (UTC) | temp C | wind direction | speed KPH | gust KPH | rain 1hr cm | rain 24hr cm | rain mn cm | humidity % | barometer mb |
| 20260504042503 | 7 | 204 | 1.6 | 3.2 | 0.00 | 0.00 | 0.00 | 88 | 1007.7 |
| 20260504042003 | 7 | 208 | 0.0 | 3.2 | 0.00 | 0.00 | 0.00 | 88 | 1007.8 |
| 20260504041503 | 7 | 193 | 0.0 | 4.8 | 0.00 | 0.00 | 0.00 | 88 | 1007.7 |
| 20260504041003 | 7 | 203 | 0.0 | 4.8 | 0.00 | 0.00 | 0.00 | 87 | 1007.8 |
| 20260504040503 | 7 | 195 | 0.0 | 1.6 | 0.00 | 0.00 | 0.00 | 87 | 1007.7 |
| 20260504040004 | 7 | 218 | 0.0 | 4.8 | 0.00 | 0.00 | 0.00 | 86 | 1007.8 |
| 20260504035503 | 7 | 213 | 1.6 | 4.8 | 0.00 | 0.00 | 0.00 | 86 | 1007.7 |
| 20260504035003 | 7 | 218 | 0.0 | 4.8 | 0.00 | 0.00 | 0.00 | 86 | 1007.8 |
| 20260504034503 | 7 | 296 | 0.0 | 3.2 | 0.00 | 0.00 | 0.00 | 85 | 1007.6 |
| 20260504034003 | 7 | 286 | 0.0 | 3.2 | 0.00 | 0.00 | 0.00 | 85 | 1007.9 |
| 20260504033503 | 7 | 225 | 0.0 | 3.2 | 0.00 | 0.00 | 0.00 | 84 | 1007.8 |
| 20260504033003 | 7 | 171 | 0.0 | 3.2 | 0.00 | 0.00 | 0.00 | 84 | 1007.7 |
| 20260504032503 | 7 | 157 | 0.0 | 3.2 | 0.00 | 0.00 | 0.00 | 84 | 1007.7 |
| 20260504032003 | 7 | 146 | 0.0 | 3.2 | 0.00 | 0.00 | 0.00 | 83 | 1007.8 |
| 20260504031503 | 7 | 147 | 1.6 | 4.8 | 0.00 | 0.00 | 0.00 | 82 | 1007.6 |
| 20260504031003 | 7 | 8 | 0.0 | 4.8 | 0.00 | 0.00 | 0.00 | 82 | 1008.2 |
| 20260504030505 | 7 | 200 | 0.0 | 4.8 | 0.00 | 0.00 | 0.00 | 81 | 1008.0 |
| 20260504030005 | 7 | 200 | 1.6 | 4.8 | 0.00 | 0.00 | 0.00 | 81 | 1008.0 |
| 20260504025505 | 7 | 207 | 1.6 | 4.8 | 0.00 | 0.00 | 0.00 | 79 | 1008.0 |
| 20260504025005 | 7 | 187 | 1.6 | 9.7 | 0.00 | 0.00 | 0.00 | 79 | 1008.2 |
| 20260504024505 | 7 | 187 | 1.6 | 9.7 | 0.00 | 0.00 | 0.00 | 78 | 1007.9 |
| 20260504024005 | 7 | 201 | 1.6 | 4.8 | 0.00 | 0.00 | 0.00 | 77 | 1008.0 |
| 20260504023505 | 7 | 205 | 1.6 | 9.7 | 0.00 | 0.00 | 0.00 | 75 | 1008.0 |
| 20260504023005 | 7 | 213 | 1.6 | 9.7 | 0.00 | 0.00 | 0.00 | 75 | 1007.9 |
| 20260504022505 | 7 | 203 | 1.6 | 6.4 | 0.00 | 0.00 | 0.00 | 73 | 1007.9 |
| 20260504022005 | 7 | 190 | 1.6 | 11.3 | 0.00 | 0.00 | 0.00 | 74 | 1008.3 |
| 20260504021505 | 7 | 188 | 1.6 | 11.3 | 0.00 | 0.00 | 0.00 | 75 | 1007.9 |
| 20260504021005 | 7 | 211 | 1.6 | 4.8 | 0.00 | 0.00 | 0.00 | 76 | 1008.2 |
| 20260504020505 | 7 | 202 | 1.6 | 4.8 | 0.00 | 0.00 | 0.00 | 75 | 1008.2 |
| 20260504020005 | 7 | 203 | 1.6 | 11.3 | 0.00 | 0.00 | 0.00 | 76 | 1008.2 |
| 20260504015505 | 7 | 191 | 1.6 | 11.3 | 0.00 | 0.00 | 0.00 | 79 | 1008.2 |
| 20260504015005 | 7 | 154 | 0.0 | 3.2 | 0.00 | 0.00 | 0.00 | 80 | 1008.2 |
| 20260504014505 | 7 | 261 | 0.0 | 1.6 | 0.00 | 0.00 | 0.00 | 80 | 1008.4 |
| 20260504014005 | 7 | 254 | 0.0 | 1.6 | 0.00 | 0.00 | 0.00 | 79 | 1008.2 |
| 20260504013505 | 7 | 231 | 0.0 | 1.6 | 0.00 | 0.00 | 0.00 | 80 | 1008.0 |
| 20260504013005 | 6 | 187 | 0.0 | 1.6 | 0.00 | 0.00 | 0.00 | 80 | 1008.0 |
| 20260504012505 | 6 | 191 | 0.0 | 1.6 | 0.00 | 0.00 | 0.00 | 80 | 1008.3 |
| 20260504012005 | 7 | 187 | 0.0 | 1.6 | 0.00 | 0.00 | 0.00 | 79 | 1008.0 |
| 20260504011505 | 7 | 163 | 0.0 | 3.2 | 0.00 | 0.00 | 0.00 | 77 | 1008.3 |
| 20260504011005 | 7 | 159 | 0.0 | 3.2 | 0.00 | 0.00 | 0.00 | 78 | 1008.2 |
| 20260504010505 | 7 | 154 | 0.0 | 1.6 | 0.00 | 0.00 | 0.00 | 75 | 1008.0 |
| 20260504010005 | 7 | 0 | 0.0 | 0.0 | 0.00 | 0.00 | 0.00 | 76 | 1007.9 |
| 20260504005505 | 7 | 0 | 0.0 | 0.0 | 0.00 | 0.00 | 0.00 | 76 | 1008.2 |
| 20260504005005 | 7 | 180 | 0.0 | 1.6 | 0.00 | 0.00 | 0.00 | 75 | 1008.3 |
| 20260504004505 | 7 | 162 | 0.0 | 3.2 | 0.00 | 0.00 | 0.00 | 74 | 1008.0 |
| 20260504004005 | 7 | 156 | 0.0 | 3.2 | 0.00 | 0.00 | 0.00 | 74 | 1008.0 |
| 20260504003505 | 7 | 164 | 0.0 | 3.2 | 0.00 | 0.00 | 0.00 | 74 | 1008.2 |
| 20260504003005 | 7 | 177 | 0.0 | 1.6 | 0.00 | 0.00 | 0.00 | 73 | 1008.3 |
| 20260504002505 | 7 | 192 | 0.0 | 1.6 | 0.00 | 0.00 | 0.00 | 70 | 1008.5 |
| 20260504002005 | 7 | 216 | 0.0 | 1.6 | 0.00 | 0.00 | 0.00 | 66 | 1008.2 |
| 20260504001505 | 7 | 263 | 0.0 | 1.6 | 0.00 | 0.00 | 0.00 | 62 | 1008.3 |
| 20260504001005 | 8 | 237 | 0.0 | 1.6 | 0.00 | 0.00 | 0.00 | 61 | 1008.2 |
| 20260504000505 | 8 | 216 | 0.0 | 4.8 | 0.00 | 0.00 | 0.00 | 60 | 1008.3 |
| 20260504000005 | 8 | 193 | 1.6 | 4.8 | 0.00 | 0.00 | 0.00 | 56 | 1008.0 |
| 20260503235505 | 8 | 168 | 1.6 | 4.8 | 0.00 | 0.00 | 0.00 | 54 | 1008.2 |
| 20260503235005 | 8 | 180 | 1.6 | 6.4 | 0.00 | 0.00 | 0.00 | 55 | 1008.2 |
| 20260503234505 | 8 | 178 | 1.6 | 6.4 | 0.00 | 0.00 | 0.00 | 54 | 1008.2 |
| 20260503234005 | 8 | 218 | 1.6 | 9.7 | 0.00 | 0.00 | 0.00 | 54 | 1008.0 |
| 20260503233505 | 8 | 224 | 1.6 | 9.7 | 0.00 | 0.00 | 0.00 | 53 | 1007.9 |
| 20260503233005 | 8 | 198 | 1.6 | 6.4 | 0.00 | 0.00 | 0.00 | 54 | 1008.2 |
| 20260503232505 | 8 | 183 | 1.6 | 9.7 | 0.00 | 0.00 | 0.00 | 54 | 1008.2 |
| 20260503232005 | 8 | 157 | 1.6 | 9.7 | 0.00 | 0.00 | 0.00 | 54 | 1008.2 |
| 20260503231505 | 8 | 179 | 1.6 | 4.8 | 0.00 | 0.00 | 0.00 | 52 | 1008.0 |
| 20260503231005 | 9 | 181 | 1.6 | 9.7 | 0.00 | 0.00 | 0.00 | 52 | 1008.0 |
| 20260503230505 | 9 | 179 | 1.6 | 9.7 | 0.00 | 0.00 | 0.00 | 51 | 1008.2 |
| 20260503230005 | 9 | 211 | 1.6 | 9.7 | 0.00 | 0.00 | 0.00 | 50 | 1008.0 |
| 20260503225505 | 9 | 198 | 1.6 | 11.3 | 0.00 | 0.00 | 0.00 | 49 | 1008.0 |
| 20260503225005 | 9 | 206 | 3.2 | 16.1 | 0.00 | 0.00 | 0.00 | 50 | 1008.4 |
| 20260503224505 | 9 | 194 | 3.2 | 16.1 | 0.00 | 0.00 | 0.00 | 50 | 1008.2 |
| 20260503224005 | 9 | 168 | 3.2 | 9.7 | 0.00 | 0.00 | 0.00 | 52 | 1008.0 |
| 20260503223505 | 9 | 166 | 1.6 | 9.7 | 0.00 | 0.00 | 0.00 | 51 | 1008.2 |
| 20260503223006 | 10 | 158 | 1.6 | 4.8 | 0.00 | 0.00 | 0.00 | 50 | 1007.9 |
| 20260503222505 | 10 | 160 | 1.6 | 6.4 | 0.00 | 0.00 | 0.00 | 51 | 1008.3 |
| 20260503222005 | 10 | 162 | 1.6 | 6.4 | 0.00 | 0.00 | 0.00 | 49 | 1008.0 |
| 20260503221505 | 11 | 159 | 3.2 | 9.7 | 0.00 | 0.00 | 0.00 | 44 | 1007.9 |
| 20260503221005 | 12 | 168 | 3.2 | 9.7 | 0.00 | 0.00 | 0.00 | 43 | 1007.9 |
| 20260503220505 | 11 | 177 | 3.2 | 9.7 | 0.00 | 0.00 | 0.00 | 42 | 1007.9 |
| 20260503220005 | 11 | 185 | 3.2 | 11.3 | 0.00 | 0.00 | 0.00 | 41 | 1008.3 |
| 20260503215505 | 11 | 180 | 1.6 | 11.3 | 0.00 | 0.00 | 0.00 | 46 | 1008.2 |
| 20260503215005 | 11 | 171 | 3.2 | 9.7 | 0.00 | 0.00 | 0.00 | 47 | 1007.9 |
| 20260503214505 | 11 | 171 | 3.2 | 11.3 | 0.00 | 0.00 | 0.00 | 44 | 1007.9 |
| 20260503214005 | 11 | 181 | 3.2 | 11.3 | 0.00 | 0.00 | 0.00 | 43 | 1008.3 |
| 20260503213505 | 11 | 170 | 3.2 | 11.3 | 0.00 | 0.00 | 0.00 | 46 | 1008.0 |
| 20260503213005 | 11 | 157 | 3.2 | 11.3 | 0.00 | 0.00 | 0.00 | 48 | 1008.2 |
| 20260503212505 | 10 | 168 | 1.6 | 11.3 | 0.00 | 0.00 | 0.00 | 49 | 1008.0 |
| 20260503212005 | 10 | 155 | 1.6 | 11.3 | 0.00 | 0.00 | 0.00 | 52 | 1008.2 |
| 20260503211505 | 11 | 165 | 3.2 | 12.9 | 0.00 | 0.00 | 0.00 | 53 | 1008.3 |
| 20260503211005 | 11 | 203 | 3.2 | 12.9 | 0.00 | 0.00 | 0.00 | 55 | 1008.0 |
| 20260503210505 | 10 | 194 | 3.2 | 11.3 | 0.00 | 0.00 | 0.00 | 56 | 1008.0 |
| 20260503210005 | 11 | 194 | 3.2 | 11.3 | 0.00 | 0.00 | 0.00 | 55 | 1008.4 |
| 20260503205505 | 11 | 165 | 3.2 | 9.7 | 0.00 | 0.00 | 0.00 | 54 | 1008.4 |
| 20260503205005 | 11 | 158 | 3.2 | 6.4 | 0.00 | 0.00 | 0.00 | 55 | 1008.5 |
| 20260503204505 | 11 | 139 | 3.2 | 6.4 | 0.00 | 0.00 | 0.00 | 53 | 1008.6 |
| 20260503204005 | 11 | 162 | 3.2 | 14.5 | 0.00 | 0.00 | 0.00 | 54 | 1008.4 |
| 20260503203505 | 10 | 165 | 3.2 | 14.5 | 0.00 | 0.00 | 0.00 | 58 | 1008.7 |
| 20260503203005 | 11 | 165 | 3.2 | 12.9 | 0.00 | 0.00 | 0.00 | 54 | 1008.9 |
| 20260503202505 | 11 | 177 | 3.2 | 12.9 | 0.00 | 0.00 | 0.00 | 56 | 1009.0 |
| 20260503202005 | 11 | 181 | 4.8 | 12.9 | 0.00 | 0.00 | 0.00 | 55 | 1008.9 |
| 20260503201505 | 11 | 164 | 4.8 | 17.7 | 0.00 | 0.00 | 0.00 | 53 | 1008.7 |
| 20260503201005 | 11 | 156 | 3.2 | 17.7 | 0.00 | 0.00 | 0.00 | 54 | 1008.8 |
| 20260503200505 | 10 | 172 | 3.2 | 11.3 | 0.00 | 0.00 | 0.00 | 55 | 1009.0 |
| 20260503200004 | 11 | 177 | 3.2 | 11.3 | 0.00 | 0.00 | 0.00 | 51 | 1008.8 |
| 20260503195504 | 11 | 184 | 3.2 | 11.3 | 0.00 | 0.00 | 0.00 | 49 | 1009.0 |
| 20260503195005 | 11 | 173 | 3.2 | 11.3 | 0.00 | 0.00 | 0.00 | 49 | 1009.1 |
| 20260503194505 | 11 | 183 | 3.2 | 11.3 | 0.00 | 0.00 | 0.00 | 49 | 1009.2 |
| 20260503194005 | 11 | 183 | 3.2 | 11.3 | 0.00 | 0.00 | 0.00 | 47 | 1009.4 |
| 20260503193505 | 11 | 167 | 3.2 | 11.3 | 0.00 | 0.00 | 0.00 | 47 | 1009.4 |
| 20260503193005 | 11 | 169 | 4.8 | 12.9 | 0.00 | 0.00 | 0.00 | 46 | 1009.4 |
| 20260503192505 | 11 | 164 | 4.8 | 14.5 | 0.00 | 0.00 | 0.00 | 45 | 1009.4 |
| 20260503192004 | 11 | 173 | 4.8 | 14.5 | 0.00 | 0.00 | 0.00 | 45 | 1009.5 |
| 20260503191504 | 11 | 187 | 3.2 | 14.5 | 0.00 | 0.00 | 0.00 | 46 | 1009.6 |
| 20260503191005 | 11 | 160 | 3.2 | 16.1 | 0.00 | 0.00 | 0.00 | 44 | 1009.6 |
| 20260503190504 | 11 | 166 | 3.2 | 16.1 | 0.00 | 0.00 | 0.00 | 44 | 1009.7 |
| 20260503190005 | 11 | 158 | 4.8 | 17.7 | 0.00 | 0.00 | 0.00 | 45 | 1009.9 |
| 20260503185504 | 11 | 164 | 4.8 | 17.7 | 0.00 | 0.00 | 0.00 | 44 | 1009.9 |
| 20260503185004 | 11 | 176 | 4.8 | 14.5 | 0.00 | 0.00 | 0.00 | 43 | 1010.1 |
| 20260503184504 | 11 | 175 | 4.8 | 14.5 | 0.00 | 0.00 | 0.00 | 42 | 1010.0 |
| 20260503184005 | 11 | 163 | 4.8 | 14.5 | 0.00 | 0.00 | 0.00 | 42 | 1010.1 |
| 20260503183505 | 11 | 156 | 4.8 | 16.1 | 0.00 | 0.00 | 0.00 | 43 | 1010.0 |
| 20260503183005 | 11 | 168 | 4.8 | 16.1 | 0.00 | 0.00 | 0.00 | 44 | 1010.1 |
| 20260503182505 | 11 | 193 | 3.2 | 12.9 | 0.00 | 0.00 | 0.00 | 41 | 1010.3 |
| 20260503182006 | 11 | 202 | 3.2 | 12.9 | 0.00 | 0.00 | 0.00 | 43 | 1010.2 |
| 20260503181505 | 11 | 180 | 4.8 | 11.3 | 0.00 | 0.00 | 0.00 | 42 | 1010.1 |
| 20260503181005 | 10 | 156 | 4.8 | 20.9 | 0.00 | 0.00 | 0.00 | 44 | 1010.4 |
| 20260503180504 | 11 | 161 | 4.8 | 20.9 | 0.00 | 0.00 | 0.00 | 43 | 1010.4 |
| 20260503180005 | 11 | 180 | 3.2 | 16.1 | 0.00 | 0.00 | 0.00 | 41 | 1010.4 |
| 20260503175504 | 11 | 175 | 3.2 | 9.7 | 0.00 | 0.00 | 0.00 | 42 | 1010.5 |
| 20260503175004 | 12 | 174 | 3.2 | 9.7 | 0.00 | 0.00 | 0.00 | 37 | 1010.3 |
| 20260503174504 | 12 | 197 | 3.2 | 9.7 | 0.00 | 0.00 | 0.00 | 40 | 1010.4 |
| 20260503174004 | 12 | 194 | 3.2 | 9.7 | 0.00 | 0.00 | 0.00 | 43 | 1010.5 |
| 20260503173505 | 11 | 199 | 3.2 | 14.5 | 0.00 | 0.00 | 0.00 | 44 | 1010.5 |
| 20260503173004 | 11 | 192 | 3.2 | 14.5 | 0.00 | 0.00 | 0.00 | 41 | 1010.4 |
| 20260503172504 | 12 | 165 | 3.2 | 14.5 | 0.00 | 0.00 | 0.00 | 40 | 1010.3 |
| 20260503172004 | 11 | 152 | 3.2 | 14.5 | 0.00 | 0.00 | 0.00 | 42 | 1010.7 |
| 20260503171504 | 11 | 152 | 4.8 | 14.5 | 0.00 | 0.00 | 0.00 | 42 | 1010.5 |
| 20260503171005 | 11 | 172 | 3.2 | 12.9 | 0.00 | 0.00 | 0.00 | 41 | 1010.7 |
| 20260503170505 | 11 | 209 | 3.2 | 12.9 | 0.00 | 0.00 | 0.00 | 43 | 1010.8 |
| 20260503151005 | 11 | 263 | 3.2 | 9.7 | 0.00 | 0.00 | 0.00 | 39 | 1011.9 |
| 20260503150505 | 11 | 270 | 3.2 | 6.4 | 0.00 | 0.00 | 0.00 | 37 | 1011.8 |
| 20260503131004 | 6 | 298 | 3.2 | 6.4 | 0.00 | 0.00 | 0.00 | 51 | 1012.5 |
| 20260503130504 | 6 | 301 | 3.2 | 6.4 | 0.00 | 0.00 | 0.00 | 53 | 1012.6 |
| 20260503110504 | 3 | 276 | 1.6 | 3.2 | 0.00 | 0.00 | 0.00 | 70 | 1012.1 |
| 20260503090504 | 3 | 239 | 0.0 | 1.6 | 0.00 | 0.00 | 0.00 | 72 | 1012.1 |
| 20260503081504 | 3 | 240 | 0.0 | 1.6 | 0.00 | 0.00 | 0.00 | 73 | 1012.3 |
| 20260503081004 | 3 | 0 | 0.0 | 0.0 | 0.00 | 0.00 | 0.00 | 72 | 1012.2 |
| 20260503080504 | 3 | 0 | 0.0 | 0.0 | 0.00 | 0.00 | 0.00 | 72 | 1012.0 |
| 20260503072504 | 3 | 237 | 0.0 | 1.6 | 0.00 | 0.00 | 0.00 | 72 | 1012.3 |
| 20260503072004 | 3 | 237 | 0.0 | 1.6 | 0.00 | 0.00 | 0.00 | 71 | 1012.2 |
| 20260503071504 | 3 | 237 | 0.0 | 1.6 | 0.00 | 0.00 | 0.00 | 71 | 1012.3 |
| 20260503071004 | 3 | 237 | 0.0 | 1.6 | 0.00 | 0.00 | 0.00 | 71 | 1012.3 |
| 20260503070504 | 3 | 236 | 0.0 | 3.2 | 0.00 | 0.00 | 0.00 | 72 | 1012.2 |
| 20260503055004 | 4 | 197 | 0.0 | 1.6 | 0.00 | 0.00 | 0.00 | 75 | 1012.3 |
| 20260503054504 | 3 | 194 | 0.0 | 1.6 | 0.00 | 0.00 | 0.00 | 76 | 1012.5 |
| 20260503054004 | 3 | 194 | 0.0 | 1.6 | 0.00 | 0.00 | 0.00 | 76 | 1012.4 |
| 20260503053504 | 4 | 0 | 0.0 | 0.0 | 0.00 | 0.00 | 0.00 | 77 | 1012.5 |
| 20260503053004 | 4 | 0 | 0.0 | 0.0 | 0.00 | 0.00 | 0.00 | 76 | 1012.6 |
| 20260503052504 | 4 | 0 | 0.0 | 0.0 | 0.00 | 0.00 | 0.00 | 76 | 1012.6 |
| 20260503052004 | 4 | 0 | 0.0 | 0.0 | 0.00 | 0.00 | 0.00 | 77 | 1012.6 |
| 20260503051504 | 4 | 194 | 0.0 | 1.6 | 0.00 | 0.00 | 0.00 | 77 | 1012.7 |
| 20260503051004 | 4 | 194 | 0.0 | 1.6 | 0.00 | 0.00 | 0.00 | 78 | 1012.6 |
| 20260503050504 | 4 | 0 | 0.0 | 0.0 | 0.00 | 0.00 | 0.00 | 78 | 1012.7 |
| 20260503050005 | 4 | 0 | 0.0 | 0.0 | 0.00 | 0.00 | 0.00 | 79 | 1012.6 |
| 20260503045504 | 4 | 0 | 0.0 | 0.0 | 0.00 | 0.00 | 0.00 | 79 | 1012.7 |
| 20260503045004 | 4 | 0 | 0.0 | 0.0 | 0.00 | 0.00 | 0.00 | 80 | 1012.8 |
| 20260503044504 | 4 | 0 | 0.0 | 0.0 | 0.00 | 0.00 | 0.00 | 80 | 1012.8 |
| 20260503044004 | 4 | 0 | 0.0 | 0.0 | 0.00 | 0.00 | 0.00 | 80 | 1013.0 |
| 20260503043504 | 4 | 0 | 0.0 | 0.0 | 0.00 | 0.00 | 0.00 | 80 | 1012.9 |
| 20260503043004 | 4 | 0 | 0.0 | 0.0 | 0.00 | 0.00 | 0.00 | 80 | 1013.0 |